Precipitable_Water
0.36 0.38 0.38 0.39 0.40 0.40 0.40 0.39 0.34 0.27 0.26 0.31 0.31 0.38 0.38 0.39 0.39 0.38 0.37 0.37 0.37 0.39 0.39 0.40 0.44 0.47 0.48 0.48 0.48 0.49 0.51 0.53 0.55 0.54 0.54 0.54 0.53 0.53
0.38 0.38 0.38 0.39 0.40 0.40 0.39 0.39 0.41 0.39 0.34 0.38 0.39 0.41 0.43 0.43 0.44 0.43 0.41 0.41 0.40 0.40 0.40 0.39 0.40 0.41 0.43 0.46 0.48 0.47 0.48 0.48 0.50 0.54 0.55 0.55 0.54 0.53
0.42 0.41 0.41 0.43 0.43 0.41 0.40 0.39 0.39 0.41 0.38 0.39 0.41 0.43 0.43 0.42 0.43 0.45 0.45 0.43 0.42 0.43 0.44 0.44 0.44 0.42 0.43 0.43 0.44 0.49 0.51 0.49 0.50 0.51 0.53 0.56 0.56 0.55
0.40 0.42 0.42 0.41 0.37 0.37 0.37 0.35 0.35 0.35 0.35 0.32 0.35 0.35 0.37 0.40 0.41 0.41 0.42 0.43 0.43 0.43 0.44 0.46 0.48 0.49 0.48 0.48 0.48 0.49 0.49 0.52 0.53 0.50 0.49 0.53 0.56 0.56
0.43 0.38 0.35 0.34 0.32 0.32 0.32 0.31 0.33 0.34 0.35 0.32 0.31 0.35 0.34 0.36 0.35 0.36 0.37 0.38 0.40 0.41 0.41 0.41 0.41 0.42 0.44 0.46 0.49 0.49 0.50 0.52 0.54 0.54 0.53 0.50 0.51 0.54
0.35 0.34 0.33 0.31 0.30 0.29 0.29 0.29 0.31 0.31 0.30 0.29 0.29 0.29 0.30 0.32 0.32 0.29 0.28 0.31 0.30 0.34 0.35 0.37 0.38 0.39 0.41 0.42 0.43 0.46 0.47 0.47 0.48 0.51 0.56 0.54 0.52 0.51
0.33 0.31 0.30 0.29 0.30 0.30 0.29 0.28 0.29 0.28 0.27 0.26 0.25 0.27 0.27 0.28 0.28 0.30 0.30 0.30 0.31 0.33 0.32 0.33 0.33 0.34 0.35 0.37 0.38 0.38 0.39 0.39 0.43 0.44 0.45 0.46 0.46 0.52
0.27 0.26 0.26 0.25 0.25 0.25 0.27 0.27 0.28 0.26 0.25 0.25 0.25 0.24 0.24 0.27 0.28 0.29 0.29 0.28 0.24 0.32 0.30 0.28 0.33 0.32 0.34 0.35 0.36 0.37 0.39 0.41 0.39 0.41 0.42 0.43 0.45 0.46
0.22 0.21 0.19 0.20 0.21 0.22 0.22 0.23 0.23 0.24 0.26 0.26 0.23 0.23 0.23 0.26 0.28 0.27 0.29 0.29 0.27 0.31 0.33 0.28 0.34 0.30 0.33 0.35 0.36 0.37 0.37 0.38 0.39 0.39 0.39 0.42 0.45 0.45
0.22 0.20 0.19 0.19 0.20 0.22 0.22 0.22 0.23 0.24 0.25 0.26 0.26 0.26 0.29 0.31 0.32 0.32 0.32 0.32 0.34 0.34 0.38 0.27 0.32 0.29 0.35 0.36 0.37 0.37 0.37 0.38 0.38 0.37 0.36 0.39 0.42 0.42
0.21 0.20 0.20 0.20 0.21 0.24 0.24 0.23 0.25 0.24 0.27 0.28 0.30 0.30 0.32 0.33 0.34 0.35 0.32 0.29 0.27 0.27 0.33 0.33 0.32 0.32 0.34 0.34 0.37 0.38 0.39 0.39 0.38 0.40 0.38 0.41 0.42 0.43
0.20 0.19 0.20 0.22 0.24 0.25 0.25 0.25 0.22 0.22 0.26 0.27 0.27 0.30 0.30 0.28 0.31 0.35 0.35 0.30 0.29 0.26 0.33 0.34 0.34 0.35 0.29 0.34 0.37 0.40 0.39 0.40 0.40 0.42 0.44 0.45 0.45 0.44
0.19 0.18 0.20 0.22 0.24 0.25 0.27 0.26 0.26 0.29 0.28 0.28 0.28 0.28 0.26 0.27 0.32 0.36 0.38 0.36 0.31 0.30 0.36 0.38 0.34 0.35 0.35 0.32 0.34 0.36 0.38 0.39 0.41 0.42 0.43 0.43 0.43 0.45
0.20 0.21 0.22 0.23 0.25 0.27 0.28 0.28 0.29 0.28 0.29 0.26 0.24 0.23 0.25 0.30 0.33 0.36 0.38 0.38 0.39 0.37 0.41 0.41 0.35 0.35 0.34 0.32 0.31 0.35 0.37 0.39 0.40 0.39 0.39 0.40 0.42 0.44
0.24 0.24 0.26 0.27 0.28 0.28 0.28 0.28 0.29 0.27 0.26 0.23 0.23 0.24 0.29 0.35 0.36 0.37 0.38 0.39 0.39 0.41 0.42 0.41 0.39 0.38 0.37 0.33 0.32 0.34 0.34 0.37 0.39 0.37 0.38 0.38 0.38 0.40
0.27 0.27 0.28 0.29 0.30 0.29 0.28 0.27 0.26 0.28 0.26 0.25 0.25 0.30 0.33 0.34 0.35 0.36 0.35 0.35 0.34 0.35 0.39 0.42 0.41 0.39 0.35 0.36 0.35 0.33 0.36 0.32 0.35 0.36 0.37 0.37 0.39 0.40
0.31 0.30 0.28 0.27 0.26 0.27 0.26 0.26 0.27 0.28 0.25 0.26 0.29 0.30 0.32 0.33 0.34 0.36 0.35 0.34 0.32 0.32 0.33 0.38 0.40 0.40 0.40 0.37 0.33 0.34 0.33 0.33 0.35 0.35 0.35 0.33 0.36 0.38
0.29 0.28 0.27 0.27 0.26 0.25 0.25 0.26 0.26 0.24 0.26 0.29 0.31 0.32 0.32 0.33 0.33 0.34 0.35 0.34 0.32 0.32 0.33 0.35 0.35 0.34 0.34 0.36 0.39 0.33 0.33 0.32 0.34 0.35 0.35 0.32 0.32 0.36
0.30 0.29 0.27 0.27 0.26 0.27 0.27 0.25 0.23 0.27 0.31 0.31 0.32 0.32 0.32 0.32 0.32 0.33 0.34 0.34 0.32 0.33 0.33 0.35 0.33 0.31 0.28 0.26 0.33 0.38 0.32 0.33 0.33 0.32 0.33 0.33 0.32 0.35
0.28 0.27 0.26 0.27 0.26 0.26 0.24 0.25 0.29 0.30 0.31 0.31 0.32 0.32 0.32 0.32 0.32 0.32 0.33 0.33 0.32 0.33 0.32 0.33 0.33 0.32 0.29 0.28 0.28 0.32 0.37 0.33 0.32 0.31 0.32 0.34 0.36 0.38
0.26 0.26 0.27 0.26 0.25 0.25 0.28 0.30 0.30 0.30 0.31 0.31 0.31 0.32 0.33 0.33 0.33 0.33 0.34 0.34 0.34 0.32 0.31 0.31 0.34 0.37 0.35 0.34 0.29 0.29 0.32 0.36 0.36 0.33 0.33 0.31 0.31 0.32
0.26 0.26 0.26 0.27 0.29 0.30 0.30 0.30 0.30 0.30 0.31 0.31 0.32 0.33 0.34 0.34 0.33 0.34 0.34 0.33 0.33 0.33 0.32 0.34 0.35 0.34 0.32 0.30 0.28 0.28 0.30 0.33 0.36 0.37 0.37 0.36 0.32 0.28
0.27 0.29 0.29 0.29 0.30 0.30 0.30 0.30 0.30 0.31 0.31 0.32 0.33 0.34 0.35 0.34 0.35 0.35 0.35 0.34 0.34 0.33 0.32 0.31 0.32 0.33 0.31 0.30 0.29 0.29 0.29 0.30 0.32 0.32 0.34 0.38 0.39 0.39
Wind_Speed
35 35 35 35 35 36 36 36 35 34 34 32 33 34 38 38 39 39 40 40 41 42 43 44 45 46 46 46 45 45 44 44 44 44 43 43 42 41
37 37 37 37 37 37 38 38 38 39 39 36 38 39 39 40 40 41 42 42 43 44 44 45 46 46 47 48 48 48 48 48 47 47 46 46 45 44
39 39 39 39 39 39 39 39 40 40 42 42 41 41 41 42 42 42 43 43 44 44 45 46 47 48 48 49 50 50 51 51 50 49 49 48 48 47
38 39 39 39 38 38 38 39 40 40 41 43 41 40 41 41 42 42 42 43 44 45 46 47 48 48 49 50 51 51 52 52 52 52 51 50 50 49
39 38 38 38 39 39 39 39 39 40 40 41 42 41 41 41 41 41 41 42 42 43 44 45 47 48 49 51 52 52 52 53 54 54 54 54 53 52
37 37 37 38 38 39 39 39 39 39 39 40 41 42 42 42 42 42 42 42 43 44 46 47 48 49 50 51 52 53 53 54 54 55 54 55 55 54
37 37 37 37 38 38 38 38 38 39 39 40 41 41 42 42 43 44 46 47 47 48 49 49 50 50 51 52 52 53 53 55 56 56 57 57 56 56
37 37 38 38 39 39 39 40 40 40 41 41 43 44 45 46 47 48 50 49 51 49 51 51 51 52 52 53 54 55 55 56 56 57 57 58 57 57
39 40 40 40 40 41 42 42 42 43 44 45 46 47 48 49 50 51 51 52 52 52 52 53 50 52 51 51 52 53 54 55 55 56 57 57 57 57
42 42 43 43 43 44 44 44 44 45 45 47 48 50 50 50 50 51 52 52 51 50 47 50 48 48 46 47 48 49 49 50 51 52 53 54 54 55
45 45 45 45 45 46 46 46 47 46 47 49 50 50 51 51 52 51 49 48 48 47 45 45 43 43 43 43 43 44 44 46 47 47 48 49 50 50
47 47 47 47 47 47 46 47 47 47 48 48 48 48 48 48 47 45 44 44 44 43 38 36 37 38 38 37 36 37 40 41 42 43 43 43 45 45
49 48 47 47 47 47 46 45 45 46 46 46 46 45 45 43 40 39 39 39 39 39 38 37 35 34 33 34 33 34 34 33 33 33 35 36 38 40
49 48 47 47 46 45 44 43 44 45 43 44 44 41 41 37 35 34 34 35 36 36 33 33 32 31 30 29 28 26 25 25 24 25 26 27 29 30
46 46 46 45 43 42 41 41 42 41 42 41 39 37 35 32 32 30 30 31 30 29 29 29 28 27 26 26 23 20 19 19 19 19 19 20 22 24
45 44 43 41 40 40 40 39 40 39 39 37 34 33 30 28 27 27 27 26 26 25 25 24 22 21 21 20 19 18 17 16 16 17 17 17 18 20
42 40 39 37 37 37 38 38 37 35 35 32 30 28 26 25 24 24 23 22 21 21 19 17 17 17 17 15 15 16 16 16 16 16 15 15 15 16
39 37 36 36 36 37 35 33 32 31 28 27 25 24 23 22 21 20 20 19 18 15 13 13 12 12 11 11 11 12 13 14 14 14 14 14 14 15
33 33 33 33 32 30 29 28 27 26 25 23 22 20 19 19 17 17 15 13 11 9 8 8 8 8 9 10 11 11 11 11 11 11 11 12 12 12
29 30 29 27 27 26 26 25 23 23 21 19 18 17 16 15 15 13 11 10 8 7 6 6 6 6 7 8 8 9 9 10 10 10 9 9 10 12
27 26 26 25 24 23 22 22 20 19 17 16 14 13 12 13 12 10 8 7 5 5 5 6 6 7 7 8 8 9 9 9 10 10 10 10 10 10
24 23 22 22 22 21 19 17 16 15 13 11 10 10 10 10 8 7 6 4 4 5 5 4 4 4 5 5 6 6 6 7 7 8 9 9 8 8
20 21 20 20 18 16 14 13 12 10 8 8 8 8 7 7 5 4 4 4 4 4 4 4 4 3 3 4 4 4 3 3 3 4 4 6 8 9
Wind_Direction
295 293 292 291 290 289 287 286 284 283 281 278 278 276 279 279 279 277 276 274 273 272 271 269 268 267 267 266 266 266 266 266 265 265 265 265 264 263
294 293 293 292 292 290 288 287 284 281 280 281 280 280 279 279 278 278 278 276 275 273 272 271 270 269 268 267 266 265 265 265 266 265 265 264 262 262
294 293 293 292 291 290 288 287 286 284 282 283 282 282 280 280 279 278 277 277 276 275 274 273 271 270 269 268 267 266 265 265 265 264 264 263 262 261
294 293 292 292 292 291 290 288 287 286 284 284 286 285 284 283 281 280 279 278 277 276 275 274 273 271 270 269 268 267 266 265 264 263 263 262 262 261
294 293 292 292 292 292 291 290 289 287 286 285 286 285 285 285 284 283 281 280 280 279 278 277 275 273 271 270 269 268 267 265 264 263 263 262 261 260
295 294 294 293 293 293 292 291 290 288 288 287 287 286 286 286 284 284 283 282 282 281 280 278 277 275 273 272 270 268 267 266 264 263 262 262 261 260
296 296 295 295 294 294 293 292 291 290 289 288 288 288 288 287 286 285 284 284 282 282 281 279 278 276 274 272 271 269 268 267 265 264 262 262 260 258
297 296 296 295 294 294 293 293 291 291 290 289 289 288 288 288 287 286 285 284 284 283 281 280 278 276 275 273 271 270 268 267 266 264 263 261 259 258
297 296 296 295 294 293 293 292 291 290 290 290 289 289 288 289 288 287 285 284 284 285 284 281 278 277 276 273 271 271 268 267 266 265 263 260 258 258
296 295 294 294 294 293 292 291 290 290 290 290 289 290 289 289 288 287 286 284 284 285 284 282 280 278 275 275 272 271 269 267 267 265 263 259 257 258
294 294 294 293 293 293 292 291 290 290 290 290 290 290 289 290 289 287 285 284 284 285 284 281 280 279 277 276 275 272 269 269 268 266 263 259 258 256
294 293 293 292 293 293 293 292 291 292 292 292 291 291 291 291 288 285 283 283 284 285 284 281 280 281 280 278 274 272 272 271 269 266 263 260 257 256
293 293 292 292 292 292 292 292 292 293 293 293 294 294 293 291 288 285 284 282 283 283 283 280 280 280 277 279 277 277 274 272 270 265 263 261 259 253
293 292 292 292 292 292 292 292 293 294 294 295 296 295 295 290 289 287 285 284 283 283 281 279 279 278 278 277 277 275 272 270 268 267 266 260 253 251
293 292 292 292 291 291 291 293 294 295 295 296 295 295 295 290 291 288 288 288 286 283 281 280 276 275 274 276 272 269 270 269 266 267 265 260 255 248
293 293 292 291 290 291 292 293 294 294 296 295 294 294 294 291 290 291 291 290 287 284 284 280 273 270 275 272 263 263 263 266 269 268 264 261 256 247
293 292 292 291 291 292 293 294 295 294 295 293 293 293 292 292 291 293 292 291 289 287 283 277 274 271 270 267 265 260 261 265 268 269 263 260 249 244
292 291 291 292 292 292 293 294 295 295 294 294 292 291 290 292 294 295 295 294 291 285 278 276 271 269 266 268 264 264 265 265 265 266 261 255 249 246
292 293 294 294 294 294 293 295 296 295 295 293 291 291 292 292 294 297 297 296 294 287 281 277 273 270 268 267 268 268 267 267 266 263 258 253 248 241
296 297 297 297 296 296 296 296 295 296 295 292 289 289 291 291 295 295 294 294 291 286 284 285 277 271 270 271 271 271 274 271 264 258 257 254 250 245
300 299 299 298 298 298 297 297 295 295 294 292 290 288 290 295 295 291 289 286 279 290 289 290 288 281 278 279 280 277 276 273 266 259 257 255 254 250
303 302 302 301 300 299 298 296 295 295 293 290 288 292 297 298 292 288 282 276 281 288 302 307 305 295 294 295 295 288 280 278 274 265 255 249 246 245
310 308 306 305 303 301 299 297 297 295 291 292 293 297 298 302 297 288 285 269 281 291 293 303 315 319 316 314 316 315 307 305 294 281 269 257 250 248